FENGYUN 1C DEB

Satellite information

Favourite Embed

Satellite Type and Status

DEBRISIN ORBIT

Key statistics

Satellite FENGYUN 1C DEB at a glance.

Uptime

9615

Days in orbit

Revolutions

≈ 14.3

Per day

Orbit

SSO

Sun Synchronous Orbit

Inclination

99.0

Latest

Satellite identification and parameters

Extended collection of information and parameters for FENGYUN 1C DEB.

Object identification

Identified? True

Debris? True

Object name: FENGYUN 1C DEB

International designator: 1999-025BGF

Object number (NORAD): 31085

Object ID (CCSDS): 31085

Country: PEOPLES REPUBLIC OF CHINA (PRC)

Current information (Y/N): Y

RCS size: SMALL

Orbital parameters

Period: 100.684 minutes

Inclination: 98.9955 deg

SMA: 7169.126 km

Apoapsis: 852.912 km

Periapsis: 729.07 km

RAAN: 83.4603 deg

Eccentricy: 0.00863717

Argument of periapsis: 310.7544 deg

Mean anomaly: 204.7878 deg

Mean motion: 14.30221935 rev/day

Mean motion (dot): 0.00000428 rev/day2

B* drag term: 0.00017651035 1/REarth

Two-line elements (TLE)

Creation date: Sept. 3, 2025, 10:15 a.m.

Reference frame: TEME

Reference center: EARTH

Epoch: Sept. 3, 2025, 12:15 a.m. UTC

TLE line 0: 0 FENGYUN 1C DEB

TLE line 1: 1 31085U 99025BGF 25246.01073885 .00000428 00000-0 17651-3 0 9990

TLE line 2: 2 31085 98.9955 83.4603 0086372 310.7544 204.7878 14.30221935962764

Live tracking on map

Real-time ground track for satellite FENGYUN 1C DEB.

In-orbit conjunctions

A list of the most updated potential collisions computed for object FENGYUN 1C DEB.

Target Orbit TCA Probability of collision Miss distance Type
SL-16 DEB SSO 2024-09-28 17:37:39 0.0002917655 37.0 (m) DEBRIS
THORAD AGENA D DEB SSO 2024-08-12 09:13:40 0.0001666395 36.0 (m) DEBRIS

Associated space launch

Chinese polar orbiting meteorological satellite

FENGYUN 1C DEB was lifted into orbit during the mission ‘Long March 4B | Feng Yun 1C’, on board a Long March 4B space rocket.

The launch took place on May 10, 1999, 1:33 a.m. from Launch Complex 7.

For more information about the launch, click the button.

Launch to space Long March 4B | Feng Yun 1C
Long March 4B | Feng Yun 1C

Agency: N/A

Status: Launch Successful

Launch date: May 10, 1999, 1:33 a.m. UTC

Rocket: Long March 4B

Launch pad: Launch Complex 7

Location: Taiyuan Satellite Launch Center, People's Republic of China

...

Latest news about this satellite

There are no fresh news available about this satellite. Check back as we update our databases every day.


Newsletter sign-up

Weekly statistics, charts and insights to help you stay on top of the space industry.